[[{"header":{"parameterUnit":"m.s-1","parameterCategory":1,"la1":30.2991,"la2":30.254,"lo1":-89.0895,"lo2":-89.0444,"dy":0.0017,"dx":0.0017,"nx":28,"ny":28,"refTime":"2024-10-17T21:00:00:Z","depth":0,"parameterNumber":2,"parameterNumberName":"U-component_of_WINDS"},"data":[0,0,0,0,0,0,0,0,0,0,0,0,0,0,0,0,0,0,0,0,0,0,0,0,0,0,0,0,0,0,0,0,0,0,0,0,0,0,0,0,0,0,0,0,0,0,0,0,0,0,0,0,0,0,0,0,0,0,-3.8829,-3.8829,0,-3.8845,-3.8845,-3.8845,-3.8653,-3.8648,-3.8642,-3.8637,-3.8656,-3.8661,-3.8666,0,0,0,0,0,0,0,0,0,0,0,0,0,-3.8634,-3.8638,-3.8829,-3.8829,-3.883,-3.8845,-3.8845,-3.8845,-3.8654,-3.8647,-3.8641,-3.8635,-3.8654,-3.866,-3.8667,0,0,0,0,0,0,0,0,0,0,0,0,0,-3.8691,-3.864,-3.8829,-3.8736,-3.8728,-3.8845,-3.8845,-3.8845,-3.8655,-3.8647,-3.8639,-3.8632,-3.8652,-3.866,-3.8668,-3.8876,0,0,-3.8692,-3.8696,0,0,0,0,0,0,0,0,-3.8688,-3.8699,-3.8749,-3.8742,-3.8733,-3.8739,-3.8783,-3.8856,-3.8657,-3.8683,-3.8637,-3.8628,-3.869,-3.8694,-3.8715,-3.8877,-3.8877,-3.8693,-3.8698,-3.8702,-3.8704,0,0,0,0,0,0,0,-3.8685,-3.8697,-3.8835,-3.875,-3.8741,-3.8693,-3.8693,-3.8796,-3.8731,-3.868,-3.8666,-3.867,-3.8684,-3.8707,-3.8714,-3.8878,-3.8693,-3.87,-3.8705,-3.8708,-3.9208,-3.9216,0,0,0,0,0,0,-3.8693,-3.8695,-3.8835,-3.8836,-3.8691,-3.8703,-3.8702,-3.8745,-3.8729,-3.8719,-3.8677,-3.8661,-3.8697,-3.8705,-3.8714,-3.8954,-3.8701,-3.8709,-3.8714,-3.92,-3.921,-3.9219,0,0,0,0,0,0,-3.869,-3.8707,-3.8834,-3.8762,-3.8774,-3.8715,-3.8764,-3.875,-3.8772,-3.8727,-3.8714,-3.8713,-3.8691,-3.8702,-3.8836,-3.8952,-3.8713,-3.872,-3.919,-3.9203,-3.9215,-3.9438,0,0,0,0,0,0,-3.8685,-3.8707,-3.8786,-3.8765,-3.8779,-3.8957,-3.8771,-3.8756,-3.8787,-3.8766,-3.8757,-3.8748,-3.8686,-3.8825,-3.8844,-3.8959,-3.8726,-3.9179,-3.9196,-3.9211,-3.942,-3.9457,-3.9489,0,0,0,0,0,-3.8678,-3.8849,-3.8791,-3.8809,-3.8876,-3.8964,-3.8972,-3.8897,-3.8797,-3.8875,-3.8845,-3.8748,-3.8937,-3.884,-3.886,-3.8979,-3.9171,-3.9191,-3.9209,-3.9405,-3.945,-3.9488,0,0,0,0,0,0,-3.8887,-3.8845,-3.878,-3.8949,-3.8961,-3.8931,-3.9028,-3.8947,-3.8989,-3.8968,-3.8874,-3.8874,-3.9023,-3.9014,-3.8908,-3.9178,-3.9036,-3.906,-3.9178,-3.9221,-3.9254,-3.9253,-3.8733,0,0,0,0,0,-3.8953,-3.9028,-3.8987,-3.914,-3.9149,-3.9089,-3.9124,-3.9065,-3.9074,-3.9079,-3.9059,-3.9073,-3.9134,-3.9177,-3.9231,-3.9418,-3.9412,-3.951,-3.9544,-3.9572,-3.9594,-3.9689,-3.9732,-3.9281,-3.9281,-3.9281,0,0,-3.9089,-3.9075,-3.9129,-3.9182,-3.9184,-3.9264,-3.9094,-3.9186,-3.9244,-3.9093,-3.9217,-3.9204,-3.9212,-3.9373,-3.9443,-3.937,-3.9717,-3.9596,-3.9619,-3.9625,-3.9713,-3.9756,-3.9794,-3.9294,-3.9292,-3.929,0,0,-3.9378,-3.9376,-3.9502,-3.9508,-3.9513,-3.9471,-3.9502,-3.9484,-3.9468,-3.9591,-3.9479,-3.9547,-3.9656,-3.9665,-3.9685,-3.9976,-3.9887,-3.9996,-4.0174,-4.0269,-4.0304,-4.0335,-4.0437,-4.0475,-4.0018,-4.0019,-4.0019,0,-3.9547,-3.9662,-3.9577,-3.9676,-3.9702,-3.9567,-3.9694,-3.9704,-3.9728,-3.9749,-3.9668,-3.98,-3.9796,-3.9956,-4.0027,-4.0048,-4.0079,-3.9997,-4.0306,-4.0336,-4.0364,-4.046,-4.0499,-4.0032,-4.003,-4.0029,-4.0028,0,-3.9868,-3.995,-4.0051,-4.0075,-4.0113,-4.0226,-4.0157,-4.0206,-4.0143,-4.0109,-4.0236,-4.0227,-4.0276,-4.0309,-4.025,-4.0461,-4.0416,-4.0322,-4.0177,-4.0421,-4.051,-4.0546,-4.005,-4.0046,-4.0042,-4.0039,0,0,-4.029,-4.0264,-4.0303,-4.0311,-4.0307,-4.0368,-4.0474,-4.0521,-4.0563,-4.0584,-4.067,-4.0764,-4.0677,-4.0699,-4.0639,-4.0723,-4.0951,-4.0618,-4.0617,-4.0679,-4.1181,-4.1251,-4.1295,-4.0893,-4.09,-4.0905,-4.118,0,-4.0569,-4.0747,-4.0673,-4.0858,-4.0931,-4.0804,-4.0896,-4.0903,-4.0875,-4.0933,-4.0901,-4.0968,-4.0849,-4.0861,-4.0938,-4.0908,-4.1051,-4.0887,-4.0971,-4.0975,-4.0971,-4.1341,-4.1415,-4.1675,-4.1214,-4.122,-4.1224,0,-4.0919,-4.0952,-4.1144,-4.1124,-4.1152,-4.1236,-4.1272,-4.1329,-4.1335,-4.1307,-4.1332,-4.1253,-4.1355,-4.1212,-4.135,-4.124,-4.127,-4.1261,-4.1269,-4.1273,-4.1114,-4.1354,-4.1756,-4.1795,-4.1278,-4.1274,-4.127,0,-4.1205,-4.1298,-4.1423,-4.1435,-4.1416,-4.1478,-4.1473,-4.147,-4.1502,-4.1534,-4.1553,-4.1598,-4.1622,-4.1658,-4.1592,-4.1494,-4.174,-4.1591,-4.1719,-4.1721,-4.1776,-4.1773,-4.2187,-4.1799,-4.1798,-4.1797,-4.1797,0,-4.1523,-4.1646,-4.1551,-4.1629,-4.1761,-4.1675,-4.1809,-4.179,-4.1788,-4.186,-4.1753,-4.1823,-4.1733,-4.1794,-4.1744,-4.1865,-4.1877,-4.1858,-4.1843,-4.1867,-4.1869,-4.1884,-4.1864,-4.1808,-4.1805,-4.1803,-4.1802,0,-4.1864,-4.1806,-4.1935,-4.1906,-4.1901,-4.2,-4.1974,-4.2045,-4.2008,-4.21,-4.2116,-4.2059,-4.2125,-4.2064,-4.2127,-4.2093,-4.2254,-4.2214,-4.2252,-4.224,-4.2371,-4.2359,-4.2808,-4.2862,-4.2441,-4.2445,-4.2449,0,-4.2071,-4.2161,-4.2141,-4.218,-4.2181,-4.2247,-4.2278,-4.2197,-4.2235,-4.2246,-4.2315,-4.2372,-4.2412,-4.2523,-4.2488,-4.2535,-4.2494,-4.2648,-4.25,-4.2521,-4.2494,-4.2488,-4.2496,-4.2678,-4.2683,-4.2687,-4.269,0,-4.2443,-4.2409,-4.2458,-4.2497,-4.2537,-4.2565,-4.2584,-4.2623,-4.2539,-4.2586,-4.2651,-4.2683,-4.2746,-4.2803,-4.2839,-4.2833,-4.2749,-4.2737,-4.2769,-4.2793,-4.281,-4.2801,-4.2332,-4.2727,-4.2723,-4.2721,-4.2719,-4.2717,-4.2721,-4.2794,-4.2791,-4.2848,-4.2854,-4.2874,-4.2937,-4.2908,-4.2961,-4.3004,-4.2954,-4.3033,-4.3034,-4.3073,-4.3078,-4.3139,-4.3074,-4.3121,-4.3132,-4.3144,-4.3163,-4.2803,-4.3146,-4.3144,-4.3143,-4.3142,-4.3142,0,-4.3085,-4.3076,-4.313,-4.3159,-4.3204,-4.3119,-4.3135,-4.3179,-4.325,-4.3258,-4.3299,-4.3374,-4.3428,-4.3396,-4.3443,-4.3497,-4.3459,-4.3512,-4.3506,-4.3506,-4.3219,-4.3186,-4.3542,-4.3542,-4.3542,-4.3542,-4.3542,-4.3542,-4.3279,-4.3398,-4.3364,-4.3484,-4.3474,-4.355,-4.3566,-4.3584,-4.3589,-4.3677,-4.3721,-4.3699,-4.3691,-4.3736,-4.3782,-4.3771,-4.3792,-4.3859,-4.3834,-4.3566,-4.3527,-4.3489,-4.3457,-4.3865,-4.3865,-4.4115,-4.4118,-4.4119]},{"header":{"parameterUnit":"m.s-1","parameterCategory":1,"la1":30.2991,"la2":30.254,"lo1":-89.0895,"lo2":-89.0444,"dy":0.0017,"dx":0.0017,"nx":28,"ny":28,"refTime":"2024-10-17T21:00:00:Z","depth":0,"parameterNumber":3,"parameterNumberName":"V-component_of_WINDS"},"data":[0,0,0,0,0,0,0,0,0,0,0,0,0,0,0,0,0,0,0,0,0,0,0,0,0,0,0,0,0,0,0,0,0,0,0,0,0,0,0,0,0,0,0,0,0,0,0,0,0,0,0,0,0,0,0,0,0,0,-3.2429,-3.2429,0,-3.2475,-3.2475,-3.2476,-3.2438,-3.2437,-3.2435,-3.2434,-3.2478,-3.2481,-3.2483,0,0,0,0,0,0,0,0,0,0,0,0,0,-3.2304,-3.2307,-3.2429,-3.2429,-3.243,-3.2475,-3.2475,-3.2476,-3.2439,-3.2437,-3.2435,-3.2433,-3.2477,-3.248,-3.2483,0,0,0,0,0,0,0,0,0,0,0,0,0,-3.2355,-3.2308,-3.2429,-3.2417,-3.2416,-3.2475,-3.2475,-3.2476,-3.2439,-3.2437,-3.2434,-3.2432,-3.2476,-3.248,-3.2484,-3.2556,0,0,-3.2496,-3.2498,0,0,0,0,0,0,0,0,-3.2352,-3.236,-3.2418,-3.2418,-3.2417,-3.2449,-3.2448,-3.2503,-3.244,-3.243,-3.2434,-3.2431,-3.247,-3.2474,-3.2488,-3.2558,-3.256,-3.2496,-3.2499,-3.2501,-3.2502,0,0,0,0,0,0,0,-3.2349,-3.2357,-3.2447,-3.2419,-3.2418,-3.2408,-3.2412,-3.2458,-3.2463,-3.2431,-3.2428,-3.2434,-3.2469,-3.2484,-3.2489,-3.256,-3.2496,-3.25,-3.2502,-3.2504,-3.2688,-3.2691,0,0,0,0,0,0,-3.2347,-3.2355,-3.2445,-3.2448,-3.2378,-3.2412,-3.2417,-3.2441,-3.2462,-3.2463,-3.2436,-3.2433,-3.2479,-3.2484,-3.249,-3.2574,-3.25,-3.2504,-3.2506,-3.2686,-3.2689,-3.2692,0,0,0,0,0,0,-3.2344,-3.2355,-3.2444,-3.2401,-3.2411,-3.2417,-3.2444,-3.2443,-3.2458,-3.2466,-3.2467,-3.2451,-3.2477,-3.2485,-3.2539,-3.2575,-3.2506,-3.251,-3.2683,-3.2687,-3.269,-3.2742,0,0,0,0,0,0,-3.2341,-3.2355,-3.2383,-3.2402,-3.2414,-3.2493,-3.2446,-3.2446,-3.2465,-3.2461,-3.248,-3.2481,-3.2476,-3.2534,-3.2543,-3.2579,-3.2513,-3.268,-3.2685,-3.2689,-3.2738,-3.2748,-3.2756,0,0,0,0,0,-3.2337,-3.2396,-3.2385,-3.2396,-3.245,-3.2496,-3.2502,-3.2496,-3.2468,-3.2496,-3.2501,-3.2481,-3.257,-3.2539,-3.255,-3.2587,-3.2677,-3.2683,-3.2689,-3.2733,-3.2746,-3.2756,0,0,0,0,0,0,-3.2381,-3.2398,-3.2386,-3.2454,-3.2473,-3.2489,-3.2524,-3.2509,-3.2536,-3.2531,-3.252,-3.2525,-3.2582,-3.259,-3.2557,-3.2657,-3.2619,-3.2627,-3.2649,-3.2661,-3.267,-3.2666,-3.2516,0,0,0,0,0,-3.2399,-3.2436,-3.2448,-3.2507,-3.2517,-3.2519,-3.2539,-3.2532,-3.2552,-3.256,-3.2569,-3.2588,-3.2619,-3.2641,-3.2671,-3.2739,-3.2741,-3.277,-3.2779,-3.2786,-3.2793,-3.2827,-3.2839,-3.271,-3.271,-3.271,0,0,-3.2435,-3.2449,-3.2473,-3.2516,-3.253,-3.2567,-3.2526,-3.2568,-3.2594,-3.2566,-3.2617,-3.2625,-3.2645,-3.2706,-3.2733,-3.2715,-3.2829,-3.2794,-3.28,-3.2802,-3.2834,-3.2846,-3.2857,-3.2714,-3.2713,-3.2713,0,0,-3.2521,-3.2536,-3.2585,-3.26,-3.2623,-3.2624,-3.2635,-3.2653,-3.2657,-3.2709,-3.2688,-3.2719,-3.2775,-3.2789,-3.2804,-3.2893,-3.2875,-3.2903,-3.2951,-3.2985,-3.2995,-3.3004,-3.3033,-3.3044,-3.291,-3.291,-3.291,0,-3.2563,-3.2619,-3.2612,-3.2655,-3.2673,-3.2649,-3.2697,-3.2712,-3.2743,-3.2755,-3.2734,-3.2803,-3.2815,-3.2878,-3.2899,-3.2913,-3.2924,-3.2901,-3.2994,-3.3003,-3.3011,-3.3039,-3.3051,-3.2914,-3.2913,-3.2913,-3.2913,0,-3.2669,-3.2708,-3.2745,-3.2775,-3.2798,-3.2843,-3.2841,-3.2864,-3.2855,-3.2857,-3.2909,-3.2923,-3.2954,-3.2969,-3.2961,-3.303,-3.3018,-3.2996,-3.2957,-3.3027,-3.3053,-3.3064,-3.2918,-3.2917,-3.2916,-3.2915,0,0,-3.2784,-3.2809,-3.2823,-3.2835,-3.2858,-3.2887,-3.293,-3.2961,-3.298,-3.3002,-3.3037,-3.3084,-3.3063,-3.308,-3.3073,-3.3102,-3.3169,-3.3076,-3.3076,-3.3091,-3.3244,-3.3259,-3.3272,-3.3157,-3.316,-3.3161,-3.3242,0,-3.2869,-3.2945,-3.2939,-3.301,-3.3044,-3.3021,-3.3058,-3.3075,-3.3078,-3.3107,-3.311,-3.3142,-3.3114,-3.3123,-3.3152,-3.3155,-3.3199,-3.3149,-3.3187,-3.3189,-3.3182,-3.3286,-3.3303,-3.3378,-3.3252,-3.3254,-3.3255,0,-3.2978,-3.3004,-3.3078,-3.3093,-3.3108,-3.3141,-3.3168,-3.3197,-3.3214,-3.3214,-3.3232,-3.322,-3.3261,-3.3223,-3.3278,-3.3245,-3.326,-3.3264,-3.3266,-3.3268,-3.3225,-3.3289,-3.3402,-3.3413,-3.3272,-3.327,-3.3269,0,-3.3052,-3.3105,-3.3156,-3.3167,-3.3187,-3.3211,-3.322,-3.3236,-3.3254,-3.3277,-3.3289,-3.3317,-3.3331,-3.3352,-3.3347,-3.332,-3.3403,-3.3365,-3.3402,-3.3402,-3.342,-3.3418,-3.3535,-3.3433,-3.3432,-3.3432,-3.3432,0,-3.3146,-3.3192,-3.3189,-3.322,-3.327,-3.3262,-3.3311,-3.3317,-3.3331,-3.3361,-3.3344,-3.3372,-3.3364,-3.3392,-3.3388,-3.3433,-3.3441,-3.344,-3.3438,-3.3441,-3.3441,-3.345,-3.3444,-3.3435,-3.3435,-3.3434,-3.3433,0,-3.3236,-3.3236,-3.329,-3.3304,-3.3308,-3.3344,-3.3355,-3.3384,-3.3385,-3.3424,-3.3432,-3.3434,-3.3466,-3.3463,-3.3498,-3.3495,-3.3551,-3.3544,-3.3545,-3.3543,-3.358,-3.3576,-3.3705,-3.3721,-3.361,-3.3611,-3.3612,0,-3.3296,-3.3331,-3.3348,-3.3367,-3.3378,-3.341,-3.3428,-3.3421,-3.3441,-3.3463,-3.3488,-3.3518,-3.3542,-3.3594,-3.3597,-3.3624,-3.3616,-3.3659,-3.362,-3.3621,-3.3614,-3.3611,-3.3614,-3.3667,-3.3668,-3.3669,-3.367,0,-3.3401,-3.3399,-3.3426,-3.3454,-3.3476,-3.3498,-3.3517,-3.3533,-3.3528,-3.3551,-3.3583,-3.3602,-3.3638,-3.3667,-3.3692,-3.37,-3.3683,-3.3682,-3.3692,-3.3694,-3.3693,-3.3692,-3.3565,-3.3679,-3.3678,-3.3678,-3.3677,-3.3677,-3.3476,-3.3505,-3.3521,-3.3552,-3.3566,-3.3584,-3.361,-3.3615,-3.3642,-3.3671,-3.3665,-3.3701,-3.3716,-3.3747,-3.3758,-3.3785,-3.3769,-3.3783,-3.3787,-3.379,-3.3793,-3.369,-3.3789,-3.3789,-3.3789,-3.3789,-3.3789,0,-3.3578,-3.3587,-3.3616,-3.3643,-3.3667,-3.365,-3.367,-3.3691,-3.3723,-3.3738,-3.3762,-3.3798,-3.3826,-3.3832,-3.3858,-3.3878,-3.3871,-3.3885,-3.3883,-3.3884,-3.3807,-3.3795,-3.389,-3.389,-3.389,-3.389,-3.389,-3.389,-3.3634,-3.3681,-3.3681,-3.3734,-3.3742,-3.3778,-3.379,-3.3806,-3.3818,-3.3859,-3.3882,-3.3886,-3.3897,-3.3924,-3.3948,-3.3949,-3.3958,-3.3975,-3.3973,-3.39,-3.389,-3.388,-3.3869,-3.3978,-3.3978,-3.4047,-3.4048,-3.4048]}]]